TimeCDT,TemperatureF,Dew PointF,Humidity,Sea Level PressureIn,VisibilityMPH,Wind Direction,Wind SpeedMPH,Gust SpeedMPH,PrecipitationIn,Events,Conditions,WindDirDegrees,DateUTC
12:53 AM,73.9,72.0,93,30.05,10.0,Calm,Calm,-,0.00,Rain,Light Rain,0,2013-09-17 05:53:00
1:53 AM,73.9,72.0,93,30.05,9.0,Calm,Calm,-,0.00,Rain,Light Rain,0,2013-09-17 06:53:00
2:53 AM,73.9,72.0,93,30.03,10.0,Calm,Calm,-,0.00,,Clear,0,2013-09-17 07:53:00
3:53 AM,73.9,72.0,93,30.02,9.0,NNE,3.5,-,N/A,,Mostly Cloudy,20,2013-09-17 08:53:00
4:53 AM,73.9,72.0,93,30.02,7.0,Calm,Calm,-,N/A,,Clear,0,2013-09-17 09:53:00
5:53 AM,73.9,71.1,91,30.02,9.0,NNE,3.5,-,N/A,,Clear,20,2013-09-17 10:53:00
6:53 AM,73.0,71.1,93,30.03,9.0,NE,3.5,-,N/A,,Clear,40,2013-09-17 11:53:00
7:53 AM,73.9,71.1,91,30.06,6.0,NE,3.5,-,N/A,,Clear,50,2013-09-17 12:53:00
8:53 AM,75.0,72.0,90,30.07,9.0,Variable,3.5,-,N/A,,Clear,0,2013-09-17 13:53:00
9:53 AM,77.0,73.0,88,30.08,9.0,East,4.6,-,N/A,,Clear,80,2013-09-17 14:53:00
10:09 AM,77.0,73.0,88,30.13,10.0,East,4.6,-,N/A,,Scattered Clouds,90,2013-09-17 15:09:00
10:19 AM,78.1,73.0,84,30.13,10.0,East,5.8,-,N/A,,Mostly Cloudy,80,2013-09-17 15:19:00
10:39 AM,79.0,72.0,79,30.13,10.0,ENE,6.9,-,N/A,,Mostly Cloudy,70,2013-09-17 15:39:00
10:51 AM,80.6,71.6,74,30.13,10.0,Variable,6.9,-,N/A,,Scattered Clouds,0,2013-09-17 15:51:00
10:53 AM,80.1,71.1,74,30.08,10.0,East,6.9,-,N/A,,Scattered Clouds,100,2013-09-17 15:53:00
11:53 AM,81.0,70.0,69,30.07,10.0,ESE,5.8,-,N/A,,Partly Cloudy,120,2013-09-17 16:53:00
12:53 PM,84.0,70.0,63,30.06,10.0,ESE,6.9,-,N/A,,Scattered Clouds,110,2013-09-17 17:53:00
1:53 PM,86.0,68.0,55,30.02,10.0,East,10.4,-,N/A,,Scattered Clouds,100,2013-09-17 18:53:00
2:53 PM,86.0,68.0,55,29.99,10.0,ESE,5.8,-,N/A,,Partly Cloudy,120,2013-09-17 19:53:00
3:53 PM,88.0,64.9,46,29.96,10.0,ESE,5.8,-,N/A,,Clear,110,2013-09-17 20:53:00
4:53 PM,87.1,66.0,49,29.95,10.0,ESE,8.1,-,N/A,,Clear,120,2013-09-17 21:53:00
5:53 PM,87.1,66.9,51,29.93,10.0,ESE,4.6,-,N/A,,Clear,110,2013-09-17 22:53:00
6:53 PM,84.9,66.9,55,29.95,10.0,SE,4.6,-,N/A,,Clear,140,2013-09-17 23:53:00
7:53 PM,82.9,66.9,58,29.96,10.0,SSE,5.8,-,N/A,,Clear,160,2013-09-18 00:53:00
8:53 PM,81.0,69.1,67,29.98,10.0,South,4.6,-,N/A,,Clear,180,2013-09-18 01:53:00
9:53 PM,80.1,66.9,64,30.00,10.0,South,4.6,-,N/A,,Scattered Clouds,170,2013-09-18 02:53:00
10:53 PM,79.0,68.0,69,30.00,10.0,Calm,Calm,-,N/A,,Clear,0,2013-09-18 03:53:00
11:53 PM,78.1,69.1,74,30.02,10.0,Calm,Calm,-,N/A,,Clear,0,2013-09-18 04:53:00